FW0515 Weather Reports


Display with metric or nautical units.
time (UTC)temp
F
wind
direction
speed
MPH
gust
MPH
rain 1hr
in
rain 24hr
in
rain mn
in
humidity
%
barometer
mb
20260504231543 67 359 0.0 0.0 0.00 0.00 0.00 51 1009.0
20260504224558 68 359 0.0 0.0 0.00 0.00 0.00 48 1009.0
20260504223042 69 359 0.0 0.0 0.00 0.00 0.00 46 1009.0
20260504221542 69 359 0.0 0.0 0.00 0.00 0.00 47 1009.0
20260504220050 69 359 0.0 0.0 0.00 0.00 0.00 44 1009.1
20260504214544 70 359 0.0 0.0 0.00 0.00 0.00 44 1009.3
20260504213040 70 359 0.0 0.0 0.00 0.00 0.00 43 1009.3
20260504211538 71 359 0.0 0.0 0.00 0.00 0.00 42 1009.3
20260504210052 72 231 0.0 0.0 0.00 0.00 0.00 41 1009.3
20260504204545 75 315 0.0 0.0 0.00 0.00 0.00 37 1009.3
20260504203039 76 4 0.0 0.0 0.00 0.00 0.00 37 1009.4
20260504201536 75 298 0.0 0.0 0.00 0.00 0.00 37 1009.6
20260504200048 75 345 0.0 0.0 0.00 0.00 0.00 37 1009.7
20260504194532 76 221 0.0 0.0 0.00 0.00 0.00 37 1010.0
20260504193030 76 314 0.0 1.0 0.00 0.00 0.00 37 1010.2
20260504191530 77 15 0.0 0.0 0.00 0.00 0.00 35 1010.3
20260504190028 75 213 0.0 1.0 0.00 0.00 0.00 37 1010.4
20260504184534 76 308 0.0 0.0 0.00 0.00 0.00 35 1010.6
20260504183032 76 56 0.0 0.0 0.00 0.00 0.00 34 1010.8
20260504181524 75 54 0.0 0.0 0.00 0.00 0.00 35 1011.0
20260504180022 76 206 0.0 0.0 0.00 0.00 0.00 36 1011.2
20260504174519 76 4 0.0 0.0 0.00 0.00 0.00 34 1011.4
20260504173018 76 250 0.0 0.0 0.00 0.00 0.00 35 1011.7
20260504171515 75 222 0.0 0.0 0.00 0.00 0.00 36 1011.8
20260504081552 43 359 0.0 0.0 0.00 0.00 0.00 83 1014.4
20260504044537 42 359 0.0 0.0 0.00 0.00 0.00 74 1014.3
20260504043046 42 359 0.0 0.0 0.00 0.00 0.00 76 1014.2
20260504041535 42 359 0.0 0.0 0.00 0.00 0.00 74 1014.0
20260504040030 42 359 0.0 0.0 0.00 0.00 0.00 73 1013.9
20260504034530 42 359 0.0 0.0 0.00 0.00 0.00 73 1013.8
20260504033029 43 359 0.0 0.0 0.00 0.00 0.00 69 1013.8
20260504031530 43 359 0.0 0.0 0.00 0.00 0.00 72 1013.7
20260504030035 44 359 0.0 0.0 0.00 0.00 0.00 68 1013.6
20260504024529 44 359 0.0 0.0 0.00 0.00 0.00 67 1013.7
20260504023028 45 359 0.0 0.0 0.00 0.00 0.00 65 1013.7
20260504021532 45 359 0.0 0.0 0.00 0.00 0.00 65 1013.7
20260504020035 46 359 0.0 0.0 0.00 0.00 0.00 64 1013.7
20260504014527 47 359 0.0 0.0 0.00 0.00 0.00 61 1013.6
20260504013034 47 359 0.0 0.0 0.00 0.00 0.00 61 1013.5
20260504011526 48 359 0.0 0.0 0.00 0.00 0.00 61 1013.3
20260504010025 49 359 0.0 0.0 0.00 0.00 0.00 59 1013.1
20260504004538 50 359 0.0 0.0 0.00 0.00 0.00 57 1013.0
20260504003024 51 359 0.0 0.0 0.00 0.00 0.00 56 1012.8
20260504001532 52 359 0.0 0.0 0.00 0.00 0.00 55 1012.5
20260504000024 53 359 0.0 0.0 0.00 0.00 0.00 53 1012.5
20260503234527 53 359 0.0 0.0 0.00 0.00 0.00 52 1012.4
20260503233023 54 359 0.0 0.0 0.00 0.00 0.00 51 1012.3